Regional Weather Roundup
Issued by NWS

Home | Current Version | Previous Version | Text Only | Print | Product List | Glossary On
Versions: 1 2 3 4 5 6 7 8 9 10 11 12 13 14 15 16 17 18 19 20 21 22 23 24 25 26 27 28 29 30 31 32 33 34 35 36 37 38 39 40 41 42 43 44 45 46 47 48 49 50
000
ASUS43 KDMX 281207
RWRIA

WEATHER ROUNDUP FOR IOWA
NATIONAL WEATHER SERVICE DES MOINES IA
700 AM CDT TUE APR 28 2015

NOTE: "FAIR" INDICATES FEW OR NO CLOUDS BELOW 12,000 FEET WITH NO
SIGNIFICANT WEATHER AND/OR OBSTRUCTIONS TO VISIBILITY.

* - THESE STATIONS ARE NOT NWS STATIONS...THUS NOT UNDER NWS
QUALITY CONTROL.  THEY ALSO DO NOT REPORT WEATHER SUCH
AS PRECIPITATION OR FOG.

IAZ001>003-012>014-020>022-031>034-043>046-281300-
   NORTHWEST IOWA

CITY           SKY/WX    TMP DP  RH WIND       PRES   REMARKS
CARROLL *      CLEAR     39  34  81 NW7       30.19R WCI  34
CHEROKEE *     CLEAR     35  34  99 CALM      30.21R
DENISON *      CLEAR     36  36 100 CALM      30.19R
LE MARS *      CLEAR     36  30  80 CALM      30.22R
ORANGE CITY *  CLEAR     39  25  56 E3        30.19S
SHELDON *      CLEAR     34  28  80 CALM      30.19S
SIOUX CITY     CLEAR     41  30  65 NW8       30.22R
6HR MIN TEMP:  38; 6HR MAX TEMP:  45;

SPENCER        CLEAR     34  28  79 W5        30.20R WCI  30
6HR MIN TEMP:  31; 6HR MAX TEMP:  42;

STORM LAKE *   CLEAR     50  30  46 NW12      30.20R
$$

IAZ055>058-069>071-079>083-090>094-281300-
   SOUTHWEST IOWA

CITY           SKY/WX    TMP DP  RH WIND       PRES   REMARKS
ATLANTIC *     CLEAR     37  36  93 CALM      30.19S
AUDUBON *      CLEAR     37  34  87 CALM      30.20R
CLARINDA *     CLEAR     39  37  93 N3        30.20R
COUNCIL BLFS * CLEAR     46  36  66 N6        30.20R
CRESTON *      CLEAR     45  36  70 CALM      30.18R
HARLAN  *      CLEAR     39  39 100 N5        30.23R
LAMONI         PTCLDY    45  35  68 W7        30.16R
6HR MIN TEMP:  41; 6HR MAX TEMP:  52;

RED OAK *      CLEAR     37  37 100 CALM      30.19S
SHENANDOAH *   CLEAR     37  36  93 CALM      30.20R
$$

IAZ047>049-059>061-072>074-084-281300-
   CENTRAL IOWA

CITY           SKY/WX    TMP DP  RH WIND       PRES   REMARKS
AMES           CLEAR     41  34  76 N6        30.17R
6HR MIN TEMP:  39; 6HR MAX TEMP:  48;

ANKENY *       CLEAR     39  37  93 CALM      30.17S
CHARITON *     CLEAR     41  36  81 NW5       30.16R
DES MOINES     PTCLDY    46  36  68 N5        30.17S
6HR MIN TEMP:  43; 6HR MAX TEMP:  52;

GRINNELL*      CLEAR     43  36  75 NW6       30.17R
KNOXVILLE *    CLEAR     41  36  81 NW5       30.15R
MARSHALLTOWN   CLEAR     40  34  79 NW6       30.16R
6HR MIN TEMP:  37; 6HR MAX TEMP:  45;

PELLA *        CLEAR     43  39  85 CALM      30.17S
PERRY *          N/A     42  36  78 N7        30.18S
$$

IAZ004>006-015-016-023>025-035-036-281300-
   NORTH CENTRAL IOWA

CITY           SKY/WX    TMP DP  RH WIND       PRES   REMARKS
ALGONA *       CLEAR     46  30  53 NW7       30.19R
CLARION *      CLEAR     37  34  87 CALM      30.18R
ESTHERVILLE    CLEAR     40  31  70 N8        30.19R WCI  34
6HR MIN TEMP:  36; 6HR MAX TEMP:  42;

FORT DODGE *   CLEAR     36  30  80 CALM      30.20R
MASON CITY     CLEAR     37  31  78 NW5       30.19R WCI  33
6HR MIN TEMP:  34; 6HR MAX TEMP:  44;

FOREST CITY *  CLEAR     34  32  93 CALM      30.18R
IOWA FALLS *     N/A     39  34  81 CALM      30.19R
$$

IAZ007>011-017>019-026>030-037>042-050>054-066-281300-
   NORTHEAST IOWA

CITY           SKY/WX    TMP DP  RH WIND       PRES   REMARKS
CEDAR RAPIDS   CLEAR     42  36  79 NW9       30.14S
6HR MIN TEMP:  38; 6HR MAX TEMP:  47;

CHARLES CITY * CLEAR     41  34  75 NW5       30.17R
CLINTON *        N/A     43  36  75 S6        30.18R
DECORAH *      CLEAR     39  34  81 CALM      30.15S
DUBUQUE        CLEAR     41  36  82 SE3       30.15R
6HR MIN TEMP:  35; 6HR MAX TEMP:  47;

MONTICELLO *   CLEAR     36  36 100 CALM      30.14S
OELWEIN *      CLEAR     41  36  81 NW6       30.16S
WATERLOO       CLEAR     39  35  86 NW5       30.16R
6HR MIN TEMP:  34; 6HR MAX TEMP:  42;

$$

IAZ064-065-067-068-078-281300-
   EAST CENTRAL IOWA

CITY           SKY/WX    TMP DP  RH WIND       PRES   REMARKS
DAVENPORT      CLEAR     41  35  79 S5        30.15R
6HR MIN TEMP:  37; 6HR MAX TEMP:  46;

IOWA CITY      CLEAR     41  37  86 CALM      30.17R
6HR MIN TEMP:  39; 6HR MAX TEMP:  46;

MT. PLEASANT * CLEAR     40  36  86 CALM      30.15R
MUSCATINE *    CLEAR     37  36  93 CALM      30.16S
QUAD CITIES    CLEAR     43  36  76 CALM      30.14S
6HR MIN TEMP:  36; 6HR MAX TEMP:  43;

$$

IAZ062-063-075>077-085>089-095>099-281300-
   SOUTHEAST IOWA

CITY           SKY/WX    TMP DP  RH WIND       PRES   REMARKS
BURLINGTON     CLEAR     43  40  89 CALM      30.15R
6HR MIN TEMP:  40; 6HR MAX TEMP:  47;

FAIRFIELD *    CLEAR     41  36  81 NW5       30.15S
FORT MADISON * CLEAR     43  37  81 CALM      30.16R
KEOKUK *       CLEAR     39  39 100 CALM      30.15R
OSKALOOSA *      N/A     41  36  82 NW6       30.15S
CENTERVILLE *  CLEAR     41  37  87 W7        30.17R
OTTUMWA        CLEAR     38  36  92 W7        30.15R WCI  33
6HR MIN TEMP:  36; 6HR MAX TEMP:  46;

WASHINGTON *   CLEAR     45  41  87 NW7       30.15R
$$

ABBREVIATIONS USED IN REMARKS
   TC - TEMPERATURES IN CELSIUS
  WCI - WIND CHILL INDEX
   HX - HEAT INDEX
  VSB - VISIBILITY
$$



USA.gov is the U.S. government's official web portal to all federal, state and local government web resources and services.